User: anonymous   Login
Location: Unspecified
(29.9680°N, 0.0000°E)
Time: 11:01:14
(UTC+00:00)
Language:

Tiros 1 - Orbit

View from above orbital plane
View from above orbital plane
View from above satellite
View from above satellite

Ground track
Ground track

The orbit data is extracted from the following two-line orbital elements,

1    29U 60002B   19167.68055514 -.00000129 +00000-0 +11869-4 0  9999
2    29 048.3789 239.4653 0023487 104.0507 256.3018 14.74307542164424
Epoch (UTC): 16 June 2019 16:19:59
Eccentricity: 0.0023487
inclination: 48.3789°
perigee height: 631 km
apogee height: 664 km
right ascension of ascending node: 239.4653°
argument of perigee: 104.0507°
revolutions per day: 14.74307542
mean anomaly at epoch: 256.3018°
orbit number at epoch: 16442

The dashed part of the orbit path shows where the satellite is in the earth's shadow,  

DLR